Time,TemperatureF,DewpointF,PressureIn,WindDirection,WindDirectionDegrees,WindSpeedMPH,WindSpeedGustMPH,Humidity,HourlyPrecipIn,Conditions,Clouds,dailyrainin,SoftwareType,DateUTC
2013-01-21 00:00:00,14.2,5.3,30.18,WNW,290,5.0,10.0,67,0.00,,---,0.00,VWS V14.01,2013-01-21 05:00:00,
2013-01-21 00:01:00,14.2,5.3,30.18,WSW,246,4.0,4.0,67,0.00,,---,0.00,VWS V14.01,2013-01-21 05:01:00,
2013-01-21 00:03:00,14.2,5.3,30.18,WNW,287,2.0,5.0,67,0.00,,---,0.00,VWS V14.01,2013-01-21 05:03:00,
2013-01-21 00:08:00,14.2,5.3,30.18,West,276,3.0,7.0,67,0.00,,---,0.00,VWS V14.01,2013-01-21 05:08:00,
2013-01-21 00:13:00,14.2,5.3,30.17,NW,304,2.0,7.0,67,0.00,,---,0.00,VWS V14.01,2013-01-21 05:13:00,
2013-01-21 00:19:00,14.1,5.5,30.17,NNW,330,2.0,7.0,68,0.00,,---,0.00,VWS V14.01,2013-01-21 05:19:00,
2013-01-21 00:24:00,14.1,5.5,30.17,WNW,285,3.0,7.0,68,0.00,,---,0.00,VWS V14.01,2013-01-21 05:24:00,
2013-01-21 00:29:00,14.1,5.5,30.17,NW,311,1.0,7.0,68,0.00,,---,0.00,VWS V14.01,2013-01-21 05:29:00,
2013-01-21 00:34:00,14.1,5.5,30.17,NNW,335,1.0,7.0,68,0.00,,---,0.00,VWS V14.01,2013-01-21 05:34:00,
2013-01-21 00:39:00,14.0,5.4,30.17,NW,318,0.0,7.0,68,0.00,,---,0.00,VWS V14.01,2013-01-21 05:39:00,
2013-01-21 00:44:00,14.0,5.4,30.17,NNW,328,1.0,7.0,68,0.00,,---,0.00,VWS V14.01,2013-01-21 05:44:00,
2013-01-21 00:49:00,14.0,5.4,30.16,NNW,344,1.0,7.0,68,0.00,,---,0.00,VWS V14.01,2013-01-21 05:49:00,
2013-01-21 00:54:00,14.1,5.8,30.16,NNW,343,1.0,7.0,69,0.00,,---,0.00,VWS V14.01,2013-01-21 05:54:00,
2013-01-21 01:00:00,14.0,5.7,30.16,NW,322,1.0,7.0,69,0.00,,---,0.00,VWS V14.01,2013-01-21 06:00:00,
2013-01-21 01:05:00,14.0,5.7,30.16,West,270,0.0,3.0,69,0.00,,---,0.00,VWS V14.01,2013-01-21 06:05:00,
2013-01-21 01:10:00,14.0,5.7,30.15,NW,311,2.0,4.0,69,0.00,,---,0.00,VWS V14.01,2013-01-21 06:10:00,
2013-01-21 01:15:00,13.9,5.6,30.15,WNW,297,3.0,4.0,69,0.00,,---,0.00,VWS V14.01,2013-01-21 06:15:00,
2013-01-21 01:20:00,13.9,5.6,30.15,NNW,341,1.0,4.0,69,0.00,,---,0.00,VWS V14.01,2013-01-21 06:20:00,
2013-01-21 01:25:00,13.9,5.9,30.14,NW,314,2.0,4.0,70,0.00,,---,0.00,VWS V14.01,2013-01-21 06:25:00,
2013-01-21 01:31:00,13.8,5.8,30.14,NNW,328,2.0,4.0,70,0.00,,---,0.00,VWS V14.01,2013-01-21 06:31:00,
2013-01-21 01:36:00,13.8,5.8,30.14,North,360,2.0,4.0,70,0.00,,---,0.00,VWS V14.01,2013-01-21 06:36:00,
2013-01-21 01:41:00,13.8,5.8,30.14,North,8,1.0,4.0,70,0.00,,---,0.00,VWS V14.01,2013-01-21 06:41:00,
2013-01-21 01:46:00,13.8,6.2,30.14,NW,311,1.0,4.0,71,0.00,,---,0.00,VWS V14.01,2013-01-21 06:46:00,
2013-01-21 01:51:00,13.9,6.2,30.14,NW,320,1.0,4.0,71,0.00,,---,0.00,VWS V14.01,2013-01-21 06:51:00,
2013-01-21 01:56:00,13.8,6.2,30.13,NW,320,0.0,4.0,71,0.00,,---,0.00,VWS V14.01,2013-01-21 06:56:00,
2013-01-21 02:01:00,13.8,6.2,30.13,NW,321,0.0,4.0,71,0.00,,---,0.00,VWS V14.01,2013-01-21 07:01:00,
2013-01-21 02:06:00,13.8,6.2,30.13,NE,34,1.0,2.0,71,0.00,,---,0.00,VWS V14.01,2013-01-21 07:06:00,
2013-01-21 02:11:00,13.7,6.1,30.13,NE,34,0.0,2.0,71,0.00,,---,0.00,VWS V14.01,2013-01-21 07:11:00,
2013-01-21 02:16:00,13.7,6.1,30.13,NE,34,0.0,2.0,71,0.00,,---,0.00,VWS V14.01,2013-01-21 07:16:00,
2013-01-21 02:21:00,13.6,6.0,30.14,NE,34,0.0,2.0,71,0.00,,---,0.00,VWS V14.01,2013-01-21 07:21:00,
2013-01-21 02:26:00,13.5,6.2,30.13,NE,34,0.0,2.0,72,0.00,,---,0.00,VWS V14.01,2013-01-21 07:26:00,
2013-01-21 02:32:00,13.3,6.0,30.14,NE,34,0.0,2.0,72,0.00,,---,0.00,VWS V14.01,2013-01-21 07:32:00,
2013-01-21 02:37:00,13.1,5.8,30.14,ESE,110,0.0,2.0,72,0.00,,---,0.00,VWS V14.01,2013-01-21 07:37:00,
2013-01-21 02:42:00,13.2,6.2,30.14,ESE,110,1.0,2.0,73,0.00,,---,0.00,VWS V14.01,2013-01-21 07:42:00,
2013-01-21 02:47:00,13.2,6.2,30.14,ESE,115,0.0,2.0,73,0.00,,---,0.00,VWS V14.01,2013-01-21 07:47:00,
2013-01-21 02:52:00,13.3,6.6,30.14,SSW,201,1.0,2.0,74,0.00,,---,0.00,VWS V14.01,2013-01-21 07:52:00,
2013-01-21 02:57:00,13.3,6.6,30.13,SSW,198,1.0,3.0,74,0.00,,---,0.00,VWS V14.01,2013-01-21 07:57:00,
2013-01-21 03:02:00,13.4,6.7,30.13,SSW,212,1.0,1.0,74,0.00,,---,0.00,VWS V14.01,2013-01-21 08:02:00,
2013-01-21 03:07:00,13.4,6.7,30.13,SSW,212,0.0,1.0,74,0.00,,---,0.00,VWS V14.01,2013-01-21 08:07:00,
2013-01-21 03:12:00,13.4,6.7,30.12,SSW,208,1.0,1.0,74,0.00,,---,0.00,VWS V14.01,2013-01-21 08:12:00,
2013-01-21 03:18:00,13.4,6.7,30.12,SSW,212,1.0,1.0,74,0.00,,---,0.00,VWS V14.01,2013-01-21 08:18:00,
2013-01-21 03:23:00,13.4,7.0,30.12,SSW,200,2.0,2.0,75,0.00,,---,0.00,VWS V14.01,2013-01-21 08:23:00,
2013-01-21 03:28:00,13.6,7.2,30.12,South,171,1.0,3.0,75,0.00,,---,0.00,VWS V14.01,2013-01-21 08:28:00,
2013-01-21 03:33:00,13.7,7.6,30.12,SSW,212,2.0,3.0,76,0.00,,---,0.00,VWS V14.01,2013-01-21 08:33:00,
2013-01-21 03:38:00,13.7,7.6,30.12,SSW,204,3.0,4.0,76,0.00,,---,0.00,VWS V14.01,2013-01-21 08:38:00,
2013-01-21 03:43:00,13.8,7.7,30.12,SSE,160,4.0,5.0,76,0.00,,---,0.00,VWS V14.01,2013-01-21 08:43:00,
2013-01-21 03:48:00,13.9,7.8,30.11,SW,224,4.0,5.0,76,0.00,,---,0.00,VWS V14.01,2013-01-21 08:48:00,
2013-01-21 03:53:00,13.9,8.0,30.11,SSE,164,4.0,5.0,77,0.00,,---,0.00,VWS V14.01,2013-01-21 08:53:00,
2013-01-21 03:58:00,13.9,8.0,30.11,SSE,158,2.0,5.0,77,0.00,,---,0.00,VWS V14.01,2013-01-21 08:58:00,
2013-01-21 04:04:00,14.0,8.4,30.11,SSW,204,2.0,3.0,78,0.00,,---,0.00,VWS V14.01,2013-01-21 09:04:00,
2013-01-21 04:09:00,14.0,8.4,30.10,SSW,193,2.0,4.0,78,0.00,,---,0.00,VWS V14.01,2013-01-21 09:09:00,
2013-01-21 04:14:00,14.0,8.4,30.10,SW,215,4.0,4.0,78,0.00,,---,0.00,VWS V14.01,2013-01-21 09:14:00,
2013-01-21 04:19:00,14.0,8.4,30.10,SW,231,3.0,5.0,78,0.00,,---,0.00,VWS V14.01,2013-01-21 09:19:00,
2013-01-21 04:24:00,14.0,8.7,30.09,ESE,117,1.0,5.0,79,0.00,,---,0.00,VWS V14.01,2013-01-21 09:24:00,
2013-01-21 04:29:00,14.0,8.7,30.09,SSE,155,1.0,5.0,79,0.00,,---,0.00,VWS V14.01,2013-01-21 09:29:00,
2013-01-21 04:34:00,14.0,8.7,30.09,SSE,161,3.0,5.0,79,0.00,,---,0.00,VWS V14.01,2013-01-21 09:34:00,
2013-01-21 04:39:00,14.0,8.7,30.09,SSE,165,2.0,5.0,79,0.00,,---,0.00,VWS V14.01,2013-01-21 09:39:00,
2013-01-21 04:44:00,14.0,9.0,30.08,SSE,160,2.0,5.0,80,0.00,,---,0.00,VWS V14.01,2013-01-21 09:44:00,
2013-01-21 04:49:00,14.0,9.3,30.08,SE,145,3.0,5.0,81,0.00,,---,0.00,VWS V14.01,2013-01-21 09:49:00,
2013-01-21 04:54:00,14.1,9.4,30.08,SSW,203,2.0,5.0,81,0.00,,---,0.00,VWS V14.01,2013-01-21 09:54:00,
2013-01-21 04:59:00,14.1,9.6,30.08,SE,143,2.0,5.0,82,0.00,,---,0.00,VWS V14.01,2013-01-21 09:59:00,
2013-01-21 05:04:00,13.5,9.0,30.08,SSW,195,2.0,4.0,82,0.00,,---,0.00,VWS V14.01,2013-01-21 10:04:00,
2013-01-21 05:09:00,13.5,9.0,30.08,SSW,195,2.0,4.0,82,0.00,,---,0.00,VWS V14.01,2013-01-21 10:09:00,
2013-01-21 05:14:00,13.5,9.0,30.07,SSW,195,2.0,4.0,82,0.00,,---,0.00,VWS V14.01,2013-01-21 10:14:00,
2013-01-21 05:20:00,13.5,9.0,30.07,SSW,195,2.0,4.0,82,0.00,,---,0.00,VWS V14.01,2013-01-21 10:20:00,
2013-01-21 05:25:00,13.5,9.0,30.07,SSW,195,2.0,4.0,82,0.00,,---,0.00,VWS V14.01,2013-01-21 10:25:00,
2013-01-21 05:30:00,13.5,9.0,30.07,SSW,195,2.0,4.0,82,0.00,,---,0.00,VWS V14.01,2013-01-21 10:30:00,
2013-01-21 05:35:00,13.5,9.0,30.06,SSW,195,2.0,4.0,82,0.00,,---,0.00,VWS V14.01,2013-01-21 10:35:00,
2013-01-21 05:40:00,13.5,9.0,30.06,SSW,195,2.0,4.0,82,0.00,,---,0.00,VWS V14.01,2013-01-21 10:40:00,
2013-01-21 05:45:00,13.5,9.0,30.06,SSW,195,2.0,4.0,82,0.00,,---,0.00,VWS V14.01,2013-01-21 10:45:00,
2013-01-21 05:50:00,13.5,9.0,30.06,SSW,195,2.0,4.0,82,0.00,,---,0.00,VWS V14.01,2013-01-21 10:50:00,
2013-01-21 05:55:00,13.5,9.0,30.06,SSW,195,2.0,4.0,82,0.00,,---,0.00,VWS V14.01,2013-01-21 10:55:00,
2013-01-21 06:00:00,13.5,9.0,30.05,SSW,195,2.0,4.0,82,0.00,,---,0.00,VWS V14.01,2013-01-21 11:00:00,
2013-01-21 06:05:00,13.5,9.0,30.05,SSW,195,2.0,2.0,82,0.00,,---,0.00,VWS V14.01,2013-01-21 11:05:00,
2013-01-21 06:10:00,13.5,9.0,30.05,SSW,195,2.0,2.0,82,0.00,,---,0.00,VWS V14.01,2013-01-21 11:10:00,
2013-01-21 06:15:00,13.5,9.0,30.05,SSW,195,2.0,2.0,82,0.00,,---,0.00,VWS V14.01,2013-01-21 11:15:00,
2013-01-21 06:21:00,13.5,9.0,30.04,SSW,195,2.0,2.0,82,0.00,,---,0.00,VWS V14.01,2013-01-21 11:21:00,
2013-01-21 06:26:00,13.5,9.0,30.04,SSW,195,2.0,2.0,82,0.00,,---,0.00,VWS V14.01,2013-01-21 11:26:00,
2013-01-21 06:31:00,13.5,9.0,30.04,SSW,195,2.0,2.0,82,0.00,,---,0.00,VWS V14.01,2013-01-21 11:31:00,
2013-01-21 06:37:00,13.5,9.0,30.04,SSW,195,2.0,2.0,82,0.00,,---,0.00,VWS V14.01,2013-01-21 11:37:00,
2013-01-21 06:42:00,13.5,9.0,30.04,SSW,195,2.0,2.0,82,0.00,,---,0.00,VWS V14.01,2013-01-21 11:42:00,
2013-01-21 06:47:00,13.5,9.0,30.04,SSW,195,2.0,2.0,82,0.00,,---,0.00,VWS V14.01,2013-01-21 11:47:00,
2013-01-21 06:52:00,13.5,9.0,30.04,SSW,195,2.0,2.0,82,0.00,,---,0.00,VWS V14.01,2013-01-21 11:52:00,
2013-01-21 06:57:00,13.5,9.0,30.04,SSW,195,2.0,2.0,82,0.00,,---,0.00,VWS V14.01,2013-01-21 11:57:00,
2013-01-21 07:02:00,13.5,9.0,30.03,SSW,195,2.0,2.0,82,0.00,,---,0.00,VWS V14.01,2013-01-21 12:02:00,
2013-01-21 07:08:00,13.5,9.0,30.04,SSW,195,2.0,2.0,82,0.00,,---,0.00,VWS V14.01,2013-01-21 12:08:00,
2013-01-21 07:13:00,13.5,9.0,30.03,SSW,195,2.0,2.0,82,0.00,,---,0.00,VWS V14.01,2013-01-21 12:13:00,
2013-01-21 07:18:00,13.5,9.0,30.04,SSW,195,2.0,2.0,82,0.00,,---,0.00,VWS V14.01,2013-01-21 12:18:00,
2013-01-21 07:23:00,13.5,9.0,30.04,SSW,195,2.0,2.0,82,0.00,,---,0.00,VWS V14.01,2013-01-21 12:23:00,
2013-01-21 07:28:00,13.5,9.0,30.04,SSW,195,2.0,2.0,82,0.00,,---,0.00,VWS V14.01,2013-01-21 12:28:00,
2013-01-21 07:33:00,13.5,9.0,30.03,SSW,195,2.0,2.0,82,0.00,,---,0.00,VWS V14.01,2013-01-21 12:33:00,
2013-01-21 07:38:00,13.5,9.0,30.03,SSW,195,2.0,2.0,82,0.00,,---,0.00,VWS V14.01,2013-01-21 12:38:00,
2013-01-21 07:43:00,13.5,9.0,30.03,SSW,195,2.0,2.0,82,0.00,,---,0.00,VWS V14.01,2013-01-21 12:43:00,
2013-01-21 07:49:00,13.5,9.0,30.03,SSW,195,2.0,2.0,82,0.00,,---,0.00,VWS V14.01,2013-01-21 12:49:00,
2013-01-21 07:54:00,13.5,9.0,30.03,SSW,195,2.0,2.0,82,0.00,,---,0.00,VWS V14.01,2013-01-21 12:54:00,
2013-01-21 07:59:00,13.5,9.0,30.03,SSW,195,2.0,2.0,82,0.00,,---,0.00,VWS V14.01,2013-01-21 12:59:00,
2013-01-21 08:04:00,13.5,9.0,30.03,SSW,195,2.0,2.0,82,0.00,,---,0.00,VWS V14.01,2013-01-21 13:04:00,
2013-01-21 08:09:00,13.5,9.0,30.03,SSW,195,2.0,2.0,82,0.00,,---,0.00,VWS V14.01,2013-01-21 13:09:00,
2013-01-21 08:14:00,13.5,9.0,30.04,SSW,195,2.0,2.0,82,0.00,,---,0.00,VWS V14.01,2013-01-21 13:14:00,
2013-01-21 08:19:00,13.5,9.0,30.04,SSW,195,2.0,2.0,82,0.00,,---,0.00,VWS V14.01,2013-01-21 13:19:00,
2013-01-21 08:24:00,13.5,9.0,30.03,SSW,195,2.0,2.0,82,0.00,,---,0.00,VWS V14.01,2013-01-21 13:24:00,
2013-01-21 08:30:00,13.5,9.0,30.03,SSW,195,2.0,2.0,82,0.00,,---,0.00,VWS V14.01,2013-01-21 13:30:00,
2013-01-21 08:35:00,13.5,9.0,30.04,SSW,195,2.0,2.0,82,0.00,,---,0.00,VWS V14.01,2013-01-21 13:35:00,
2013-01-21 08:40:00,13.5,9.0,30.04,SSW,195,2.0,2.0,82,0.00,,---,0.00,VWS V14.01,2013-01-21 13:40:00,
2013-01-21 08:45:00,13.5,9.0,30.03,SSW,195,2.0,2.0,82,0.00,,---,0.00,VWS V14.01,2013-01-21 13:45:00,
2013-01-21 08:50:00,13.5,9.0,30.04,SSW,195,2.0,2.0,82,0.00,,---,0.00,VWS V14.01,2013-01-21 13:50:00,
2013-01-21 08:55:00,13.5,9.0,30.03,SSW,195,2.0,2.0,82,0.00,,---,0.00,VWS V14.01,2013-01-21 13:55:00,
2013-01-21 09:00:00,13.5,9.0,30.03,SSW,195,2.0,2.0,82,0.00,,---,0.00,VWS V14.01,2013-01-21 14:00:00,
2013-01-21 09:05:00,13.5,9.0,30.03,SSW,195,2.0,2.0,82,0.00,,---,0.00,VWS V14.01,2013-01-21 14:05:00,
2013-01-21 09:11:00,13.5,9.0,30.03,SSW,195,2.0,2.0,82,0.00,,---,0.00,VWS V14.01,2013-01-21 14:11:00,
2013-01-21 09:16:00,13.5,9.0,30.03,SSW,195,2.0,2.0,82,0.00,,---,0.00,VWS V14.01,2013-01-21 14:16:00,
2013-01-21 09:21:00,13.1,10.2,30.03,West,278,5.0,8.0,88,0.00,,---,0.00,VWS V14.01,2013-01-21 14:21:00,
2013-01-21 09:26:00,13.1,10.0,30.03,NW,307,5.0,8.0,87,0.00,,---,0.00,VWS V14.01,2013-01-21 14:26:00,
2013-01-21 09:31:00,13.0,9.9,30.03,WNW,301,5.0,8.0,87,0.00,,---,0.00,VWS V14.01,2013-01-21 14:31:00,
2013-01-21 09:36:00,12.9,9.5,30.04,WNW,293,4.0,8.0,86,0.00,,---,0.00,VWS V14.01,2013-01-21 14:36:00,
2013-01-21 09:41:00,12.9,9.5,30.04,NW,310,5.0,8.0,86,0.00,,---,0.00,VWS V14.01,2013-01-21 14:41:00,
2013-01-21 09:47:00,13.0,9.6,30.04,NW,323,3.0,8.0,86,0.00,,---,0.00,VWS V14.01,2013-01-21 14:47:00,
2013-01-21 09:52:00,13.3,9.9,30.04,NW,323,2.0,8.0,86,0.00,,---,0.00,VWS V14.01,2013-01-21 14:52:00,
2013-01-21 09:57:00,13.6,10.2,30.04,NNW,340,5.0,8.0,86,0.00,,---,0.00,VWS V14.01,2013-01-21 14:57:00,
2013-01-21 10:02:00,13.6,9.7,30.04,NW,326,3.0,6.0,84,0.00,,---,0.00,VWS V14.01,2013-01-21 15:02:00,
2013-01-21 10:07:00,13.3,9.1,30.04,NW,316,3.0,8.0,83,0.00,,---,0.00,VWS V14.01,2013-01-21 15:07:00,
2013-01-21 10:12:00,13.2,9.0,30.05,NW,316,4.0,8.0,83,0.00,,---,0.00,VWS V14.01,2013-01-21 15:12:00,
2013-01-21 10:17:00,13.2,9.0,30.05,NW,325,5.0,8.0,83,0.00,,---,0.00,VWS V14.01,2013-01-21 15:17:00,
2013-01-21 10:22:00,13.0,8.3,30.05,NNW,342,4.0,8.0,81,0.00,,---,0.00,VWS V14.01,2013-01-21 15:22:00,
2013-01-21 10:27:00,13.0,8.3,30.05,West,278,4.0,8.0,81,0.00,,---,0.00,VWS V14.01,2013-01-21 15:27:00,
2013-01-21 10:32:00,13.0,8.0,30.05,WNW,294,5.0,8.0,80,0.00,,---,0.00,VWS V14.01,2013-01-21 15:32:00,
2013-01-21 10:37:00,13.2,8.2,30.05,NNW,333,6.0,9.0,80,0.00,,---,0.00,VWS V14.01,2013-01-21 15:37:00,
2013-01-21 10:42:00,13.5,8.2,30.04,West,273,7.0,9.0,79,0.00,,---,0.00,VWS V14.01,2013-01-21 15:42:00,
2013-01-21 10:48:00,13.6,8.0,30.04,WNW,302,4.0,9.0,78,0.00,,---,0.00,VWS V14.01,2013-01-21 15:48:00,
2013-01-21 10:53:00,13.9,8.0,30.04,West,280,3.0,9.0,77,0.00,,---,0.00,VWS V14.01,2013-01-21 15:53:00,
2013-01-21 10:58:00,14.3,8.4,30.04,WNW,287,6.0,9.0,77,0.00,,---,0.00,VWS V14.01,2013-01-21 15:58:00,
2013-01-21 11:03:00,13.9,7.2,30.04,NW,318,4.0,9.0,74,0.00,,---,0.00,VWS V14.01,2013-01-21 16:03:00,
2013-01-21 11:08:00,13.7,7.3,30.04,NW,326,1.0,10.0,75,0.00,,---,0.00,VWS V14.01,2013-01-21 16:08:00,
2013-01-21 11:13:00,13.8,7.1,30.04,WNW,282,6.0,10.0,74,0.00,,---,0.00,VWS V14.01,2013-01-21 16:13:00,
2013-01-21 11:18:00,14.0,7.6,30.03,WNW,300,8.0,11.0,75,0.00,,---,0.00,VWS V14.01,2013-01-21 16:18:00,
2013-01-21 11:23:00,14.3,8.1,30.03,West,280,6.0,17.0,76,0.00,,---,0.00,VWS V14.01,2013-01-21 16:23:00,
2013-01-21 11:28:00,14.1,6.4,30.03,WNW,285,10.0,17.0,71,0.00,,---,0.00,VWS V14.01,2013-01-21 16:28:00,
2013-01-21 11:33:00,14.2,6.8,30.03,West,274,5.0,17.0,72,0.00,,---,0.00,VWS V14.01,2013-01-21 16:33:00,
2013-01-21 11:38:00,14.1,6.4,30.03,NW,304,10.0,17.0,71,0.00,,---,0.00,VWS V14.01,2013-01-21 16:38:00,
2013-01-21 11:44:00,14.0,6.3,30.03,NW,304,8.0,17.0,71,0.00,,---,0.00,VWS V14.01,2013-01-21 16:44:00,
2013-01-21 11:49:00,14.0,6.0,30.02,NW,320,3.0,17.0,70,0.00,,---,0.00,VWS V14.01,2013-01-21 16:49:00,
2013-01-21 11:54:00,14.1,5.5,30.02,West,273,7.0,17.0,68,0.00,,---,0.00,VWS V14.01,2013-01-21 16:54:00,
2013-01-21 11:59:00,14.0,5.1,30.02,WSW,243,6.0,17.0,67,0.00,,---,0.00,VWS V14.01,2013-01-21 16:59:00,
2013-01-21 12:04:00,13.9,4.7,30.01,WSW,246,9.0,13.0,66,0.00,,---,0.00,VWS V14.01,2013-01-21 17:04:00,
2013-01-21 12:09:00,13.9,4.7,30.02,WNW,285,9.0,17.0,66,0.00,,---,0.00,VWS V14.01,2013-01-21 17:09:00,
2013-01-21 12:14:00,14.0,5.1,30.01,West,263,9.0,17.0,67,0.00,,---,0.00,VWS V14.01,2013-01-21 17:14:00,
2013-01-21 12:19:00,14.0,5.1,30.01,West,263,6.0,17.0,67,0.00,,---,0.00,VWS V14.01,2013-01-21 17:19:00,
2013-01-21 12:24:00,14.0,5.4,30.01,West,273,8.0,17.0,68,0.00,,---,0.00,VWS V14.01,2013-01-21 17:24:00,
2013-01-21 12:29:00,13.9,6.2,30.01,NNW,336,4.0,17.0,71,0.00,,---,0.00,VWS V14.01,2013-01-21 17:29:00,
2013-01-21 12:35:00,13.6,7.2,30.01,WNW,298,9.0,17.0,75,0.00,,---,0.00,VWS V14.01,2013-01-21 17:35:00,
2013-01-21 12:40:00,13.7,7.6,30.00,West,269,5.0,17.0,76,0.00,,---,0.00,VWS V14.01,2013-01-21 17:40:00,
2013-01-21 12:45:00,13.7,6.1,30.00,WNW,295,8.0,17.0,71,0.00,,---,0.00,VWS V14.01,2013-01-21 17:45:00,
2013-01-21 12:50:00,13.6,6.0,30.00,WNW,298,6.0,17.0,71,0.00,,---,0.00,VWS V14.01,2013-01-21 17:50:00,
2013-01-21 12:55:00,13.4,5.5,30.00,WNW,301,7.0,17.0,70,0.00,,---,0.00,VWS V14.01,2013-01-21 17:55:00,
2013-01-21 13:00:00,13.3,5.4,30.00,WNW,300,8.0,17.0,70,0.00,,---,0.00,VWS V14.01,2013-01-21 18:00:00,
2013-01-21 13:05:00,13.0,6.0,30.00,WSW,246,7.0,12.0,73,0.00,,---,0.00,VWS V14.01,2013-01-21 18:05:00,
2013-01-21 13:10:00,12.7,5.7,30.00,NW,311,7.0,13.0,73,0.00,,---,0.00,VWS V14.01,2013-01-21 18:10:00,
2013-01-21 13:15:00,12.8,5.2,30.00,West,280,10.0,13.0,71,0.00,,---,0.00,VWS V14.01,2013-01-21 18:15:00,
2013-01-21 13:20:00,12.8,4.6,30.00,NNW,343,10.0,17.0,69,0.00,,---,0.00,VWS V14.01,2013-01-21 18:20:00,
2013-01-21 13:25:00,13.0,4.1,30.00,NNW,330,8.0,17.0,67,0.00,,---,0.00,VWS V14.01,2013-01-21 18:25:00,
2013-01-21 13:31:00,13.3,4.4,30.00,NW,326,11.0,17.0,67,0.00,,---,0.00,VWS V14.01,2013-01-21 18:31:00,
2013-01-21 13:36:00,13.7,4.8,30.00,WNW,294,10.0,17.0,67,0.00,,---,0.00,VWS V14.01,2013-01-21 18:36:00,
2013-01-21 13:41:00,13.8,5.8,30.00,WNW,284,8.0,17.0,70,0.00,,---,0.00,VWS V14.01,2013-01-21 18:41:00,
2013-01-21 13:46:00,13.7,5.4,30.00,WNW,295,8.0,17.0,69,0.00,,---,0.00,VWS V14.01,2013-01-21 18:46:00,
2013-01-21 13:51:00,13.6,4.7,30.00,NW,322,7.0,17.0,67,0.00,,---,0.00,VWS V14.01,2013-01-21 18:51:00,
2013-01-21 13:56:00,13.0,6.3,30.00,NW,307,8.0,17.0,74,0.00,,---,0.00,VWS V14.01,2013-01-21 18:56:00,
2013-01-21 14:01:00,12.4,7.1,30.00,WNW,297,11.0,17.0,79,0.00,,---,0.00,VWS V14.01,2013-01-21 19:01:00,
2013-01-21 14:06:00,12.1,6.0,30.00,WNW,294,5.0,16.0,76,0.00,,---,0.00,VWS V14.01,2013-01-21 19:06:00,
2013-01-21 14:11:00,12.1,4.8,30.01,WNW,300,5.0,16.0,72,0.00,,---,0.00,VWS V14.01,2013-01-21 19:11:00,
2013-01-21 14:16:00,12.5,3.6,30.00,West,262,6.0,17.0,67,0.00,,---,0.00,VWS V14.01,2013-01-21 19:16:00,
2013-01-21 14:21:00,12.8,3.3,30.00,WNW,292,8.0,18.0,65,0.00,,---,0.00,VWS V14.01,2013-01-21 19:21:00,
2013-01-21 14:26:00,12.6,2.1,30.01,NW,304,13.0,20.0,62,0.00,,---,0.00,VWS V14.01,2013-01-21 19:26:00,
2013-01-21 14:32:00,12.8,2.6,30.01,West,271,10.0,20.0,63,0.00,,---,0.00,VWS V14.01,2013-01-21 19:32:00,
2013-01-21 14:37:00,12.8,1.5,30.01,West,278,3.0,20.0,60,0.00,,---,0.00,VWS V14.01,2013-01-21 19:37:00,
2013-01-21 14:42:00,12.6,0.6,30.01,WNW,286,12.0,20.0,58,0.00,,---,0.00,VWS V14.01,2013-01-21 19:42:00,
2013-01-21 14:47:00,12.5,0.5,30.01,WSW,240,7.0,20.0,58,0.00,,---,0.00,VWS V14.01,2013-01-21 19:47:00,
2013-01-21 14:52:00,12.7,0.4,30.01,WSW,252,10.0,20.0,57,0.00,,---,0.00,VWS V14.01,2013-01-21 19:52:00,
2013-01-21 14:57:00,13.1,0.0,30.01,West,267,13.0,20.0,55,0.00,,---,0.00,VWS V14.01,2013-01-21 19:57:00,
2013-01-21 15:02:00,13.4,-0.1,30.01,West,269,17.0,17.0,54,0.00,,---,0.00,VWS V14.01,2013-01-21 20:02:00,
2013-01-21 15:07:00,13.5,0.3,30.02,West,259,16.0,22.0,55,0.00,,---,0.00,VWS V14.01,2013-01-21 20:07:00,
2013-01-21 15:12:00,13.5,1.5,30.02,West,270,5.0,22.0,58,0.00,,---,0.00,VWS V14.01,2013-01-21 20:12:00,
2013-01-21 15:17:00,13.3,4.7,30.02,NW,304,6.0,22.0,68,0.00,,---,0.00,VWS V14.01,2013-01-21 20:17:00,
2013-01-21 15:23:00,13.4,1.4,30.03,WSW,257,12.0,25.0,58,0.00,,---,0.00,VWS V14.01,2013-01-21 20:23:00,
2013-01-21 15:28:00,13.3,0.2,30.02,West,276,10.0,25.0,55,0.00,,---,0.00,VWS V14.01,2013-01-21 20:28:00,
2013-01-21 15:33:00,13.5,0.3,30.02,West,262,14.0,25.0,55,0.00,,---,0.00,VWS V14.01,2013-01-21 20:33:00,
2013-01-21 15:38:00,13.1,3.2,30.03,WNW,294,17.0,25.0,64,0.00,,---,0.00,VWS V14.01,2013-01-21 20:38:00,
2013-01-21 15:43:00,11.6,4.6,30.03,WNW,297,10.0,25.0,73,0.00,,---,0.00,VWS V14.01,2013-01-21 20:43:00,
2013-01-21 15:48:00,10.9,4.8,30.03,WNW,284,5.0,25.0,76,0.00,,---,0.00,VWS V14.01,2013-01-21 20:48:00,
2013-01-21 15:53:00,10.8,4.4,30.03,WNW,290,10.0,25.0,75,0.00,,---,0.00,VWS V14.01,2013-01-21 20:53:00,
2013-01-21 15:58:00,10.8,4.2,30.04,WSW,257,8.0,25.0,74,0.00,,---,0.00,VWS V14.01,2013-01-21 20:58:00,
2013-01-21 16:04:00,10.9,4.6,30.04,WNW,289,4.0,11.0,75,0.00,,---,0.00,VWS V14.01,2013-01-21 21:04:00,
2013-01-21 16:09:00,11.0,4.1,30.04,WSW,255,10.0,15.0,73,0.00,,---,0.00,VWS V14.01,2013-01-21 21:09:00,
2013-01-21 16:14:00,11.2,2.4,30.05,WNW,284,6.0,20.0,67,0.00,,---,0.00,VWS V14.01,2013-01-21 21:14:00,
2013-01-21 16:19:00,11.3,0.8,30.05,West,276,11.0,20.0,62,0.00,,---,0.00,VWS V14.01,2013-01-21 21:19:00,
2013-01-21 16:24:00,11.3,0.8,30.05,WNW,293,7.0,20.0,62,0.00,,---,0.00,VWS V14.01,2013-01-21 21:24:00,
2013-01-21 16:29:00,11.1,0.6,30.05,West,260,10.0,20.0,62,0.00,,---,0.00,VWS V14.01,2013-01-21 21:29:00,
2013-01-21 16:34:00,11.0,1.2,30.05,West,272,9.0,23.0,64,0.00,,---,0.00,VWS V14.01,2013-01-21 21:34:00,
2013-01-21 16:39:00,10.9,1.1,30.05,WSW,244,10.0,23.0,64,0.00,,---,0.00,VWS V14.01,2013-01-21 21:39:00,
2013-01-21 16:45:00,10.8,1.7,30.06,WSW,252,8.0,23.0,66,0.00,,---,0.00,VWS V14.01,2013-01-21 21:45:00,
2013-01-21 16:50:00,10.9,2.1,30.06,WNW,290,6.0,23.0,67,0.00,,---,0.00,VWS V14.01,2013-01-21 21:50:00,
2013-01-21 16:55:00,11.0,2.5,30.06,West,259,11.0,23.0,68,0.00,,---,0.00,VWS V14.01,2013-01-21 21:55:00,
2013-01-21 17:00:00,10.8,3.0,30.06,West,262,4.0,23.0,70,0.00,,---,0.00,VWS V14.01,2013-01-21 22:00:00,
2013-01-21 17:05:00,10.5,3.3,30.06,WNW,283,9.0,19.0,72,0.00,,---,0.00,VWS V14.01,2013-01-21 22:05:00,
2013-01-21 17:10:00,10.0,4.0,30.06,WNW,290,9.0,19.0,76,0.00,,---,0.00,VWS V14.01,2013-01-21 22:10:00,
2013-01-21 17:15:00,9.5,4.6,30.07,NW,306,4.0,19.0,80,0.00,,---,0.00,VWS V14.01,2013-01-21 22:15:00,
2013-01-21 17:20:00,9.1,4.5,30.07,NW,311,4.0,19.0,81,0.00,,---,0.00,VWS V14.01,2013-01-21 22:20:00,
2013-01-21 17:26:00,8.9,4.3,30.07,West,260,4.0,19.0,81,0.00,,---,0.00,VWS V14.01,2013-01-21 22:26:00,
2013-01-21 17:31:00,8.9,3.5,30.07,WNW,299,7.0,19.0,78,0.00,,---,0.00,VWS V14.01,2013-01-21 22:31:00,
2013-01-21 17:36:00,8.8,2.8,30.07,WNW,300,5.0,19.0,76,0.00,,---,0.00,VWS V14.01,2013-01-21 22:36:00,
2013-01-21 17:41:00,8.7,2.7,30.07,West,276,11.0,19.0,76,0.00,,---,0.00,VWS V14.01,2013-01-21 22:41:00,
2013-01-21 17:46:00,8.6,2.9,30.08,WNW,298,14.0,19.0,77,0.00,,---,0.00,VWS V14.01,2013-01-21 22:46:00,
2013-01-21 17:51:00,8.5,3.3,30.08,WNW,284,6.0,19.0,79,0.00,,---,0.00,VWS V14.01,2013-01-21 22:51:00,
2013-01-21 17:56:00,8.5,3.6,30.08,West,270,12.0,20.0,80,0.00,,---,0.00,VWS V14.01,2013-01-21 22:56:00,
2013-01-21 18:01:00,8.5,2.8,30.08,WNW,288,6.0,9.0,77,0.00,,---,0.00,VWS V14.01,2013-01-21 23:01:00,
2013-01-21 18:07:00,8.3,1.7,30.08,West,271,12.0,17.0,74,0.00,,---,0.00,VWS V14.01,2013-01-21 23:07:00,
2013-01-21 18:12:00,8.3,1.1,30.08,West,264,12.0,17.0,72,0.00,,---,0.00,VWS V14.01,2013-01-21 23:12:00,
2013-01-21 18:17:00,8.1,0.4,30.09,WNW,285,6.0,17.0,70,0.00,,---,0.00,VWS V14.01,2013-01-21 23:17:00,
2013-01-21 18:22:00,7.9,0.2,30.09,West,264,11.0,17.0,70,0.00,,---,0.00,VWS V14.01,2013-01-21 23:22:00,
2013-01-21 18:27:00,7.8,0.1,30.09,West,270,10.0,19.0,70,0.00,,---,0.00,VWS V14.01,2013-01-21 23:27:00,
2013-01-21 18:32:00,7.7,0.0,30.09,West,270,12.0,19.0,70,0.00,,---,0.00,VWS V14.01,2013-01-21 23:32:00,
2013-01-21 18:37:00,7.5,-0.2,30.09,West,281,13.0,19.0,70,0.00,,---,0.00,VWS V14.01,2013-01-21 23:37:00,
2013-01-21 18:42:00,7.4,-0.6,30.09,West,264,10.0,19.0,69,0.00,,---,0.00,VWS V14.01,2013-01-21 23:42:00,
2013-01-21 18:47:00,7.2,-1.1,30.09,WSW,248,6.0,19.0,68,0.00,,---,0.00,VWS V14.01,2013-01-21 23:47:00,
2013-01-21 18:53:00,7.0,-1.3,30.09,West,281,5.0,19.0,68,0.00,,---,0.00,VWS V14.01,2013-01-21 23:53:00,
2013-01-21 18:58:00,6.8,-1.2,30.10,WNW,284,6.0,19.0,69,0.00,,---,0.00,VWS V14.01,2013-01-21 23:58:00,
2013-01-21 19:03:00,6.8,-0.9,30.09,West,276,10.0,11.0,70,0.00,,---,0.00,VWS V14.01,2013-01-22 00:03:00,
2013-01-21 19:08:00,6.6,-1.1,30.10,WNW,284,6.0,12.0,70,0.00,,---,0.00,VWS V14.01,2013-01-22 00:08:00,
2013-01-21 19:13:00,6.6,-1.1,30.10,West,263,7.0,15.0,70,0.00,,---,0.00,VWS V14.01,2013-01-22 00:13:00,
2013-01-21 19:18:00,6.5,-0.9,30.10,West,269,9.0,15.0,71,0.00,,---,0.00,VWS V14.01,2013-01-22 00:18:00,
2013-01-21 19:23:00,6.4,-1.3,30.10,West,266,7.0,16.0,70,0.00,,---,0.00,VWS V14.01,2013-01-22 00:23:00,
2013-01-21 19:28:00,6.3,-1.4,30.10,West,263,6.0,16.0,70,0.00,,---,0.00,VWS V14.01,2013-01-22 00:28:00,
2013-01-21 19:33:00,6.2,-1.8,30.10,West,259,4.0,16.0,69,0.00,,---,0.00,VWS V14.01,2013-01-22 00:33:00,
2013-01-21 19:39:00,6.2,-1.8,30.11,WNW,286,6.0,16.0,69,0.00,,---,0.00,VWS V14.01,2013-01-22 00:39:00,
2013-01-21 19:44:00,6.1,-2.2,30.11,West,277,8.0,16.0,68,0.00,,---,0.00,VWS V14.01,2013-01-22 00:44:00,
2013-01-21 19:49:00,6.1,-2.2,30.11,WNW,295,5.0,16.0,68,0.00,,---,0.00,VWS V14.01,2013-01-22 00:49:00,
2013-01-21 19:54:00,6.2,-2.1,30.11,NW,319,9.0,16.0,68,0.00,,---,0.00,VWS V14.01,2013-01-22 00:54:00,
2013-01-21 19:59:00,6.2,-1.2,30.11,WNW,295,9.0,16.0,71,0.00,,---,0.00,VWS V14.01,2013-01-22 00:59:00,
2013-01-21 20:04:00,6.1,-0.4,30.11,WNW,298,8.0,11.0,74,0.00,,---,0.00,VWS V14.01,2013-01-22 01:04:00,
2013-01-21 20:09:00,6.0,-0.2,30.11,WNW,293,6.0,13.0,75,0.00,,---,0.00,VWS V14.01,2013-01-22 01:09:00,
2013-01-21 20:14:00,5.8,-0.4,30.11,WNW,290,7.0,13.0,75,0.00,,---,0.00,VWS V14.01,2013-01-22 01:14:00,
2013-01-21 20:19:00,5.7,-0.8,30.12,NW,307,9.0,16.0,74,0.00,,---,0.00,VWS V14.01,2013-01-22 01:19:00,
2013-01-21 20:25:00,5.6,-1.2,30.12,WNW,300,7.0,16.0,73,0.00,,---,0.00,VWS V14.01,2013-01-22 01:25:00,
2013-01-21 20:30:00,5.4,-1.6,30.12,West,277,4.0,16.0,72,0.00,,---,0.00,VWS V14.01,2013-01-22 01:30:00,
2013-01-21 20:35:00,5.3,-1.8,30.12,NW,309,8.0,16.0,72,0.00,,---,0.00,VWS V14.01,2013-01-22 01:35:00,
2013-01-21 20:40:00,5.2,-2.1,30.12,WSW,255,4.0,16.0,71,0.00,,---,0.00,VWS V14.01,2013-01-22 01:40:00,
2013-01-21 20:45:00,5.1,-2.5,30.12,WNW,284,5.0,16.0,70,0.00,,---,0.00,VWS V14.01,2013-01-22 01:45:00,
2013-01-21 20:50:00,4.9,-2.7,30.12,NW,309,4.0,16.0,70,0.00,,---,0.00,VWS V14.01,2013-01-22 01:50:00,
2013-01-21 20:55:00,4.8,-3.1,30.12,West,278,5.0,16.0,69,0.00,,---,0.00,VWS V14.01,2013-01-22 01:55:00,
2013-01-21 21:00:00,4.7,-3.5,30.12,NW,309,3.0,16.0,68,0.00,,---,0.00,VWS V14.01,2013-01-22 02:00:00,
2013-01-21 21:06:00,4.6,-3.9,30.12,WNW,300,10.0,14.0,67,0.00,,---,0.00,VWS V14.01,2013-01-22 02:06:00,
2013-01-21 21:11:00,4.6,-3.9,30.13,WNW,283,6.0,14.0,67,0.00,,---,0.00,VWS V14.01,2013-01-22 02:11:00,
2013-01-21 21:16:00,4.5,-4.0,30.13,WNW,291,7.0,14.0,67,0.00,,---,0.00,VWS V14.01,2013-01-22 02:16:00,
2013-01-21 21:21:00,4.3,-4.2,30.13,NW,314,9.0,14.0,67,0.00,,---,0.00,VWS V14.01,2013-01-22 02:21:00,
2013-01-21 21:26:00,4.3,-4.2,30.13,West,281,4.0,14.0,67,0.00,,---,0.00,VWS V14.01,2013-01-22 02:26:00,
2013-01-21 21:31:00,4.2,-4.3,30.13,WNW,297,3.0,14.0,67,0.00,,---,0.00,VWS V14.01,2013-01-22 02:31:00,
2013-01-21 21:36:00,4.1,-4.4,30.13,West,280,6.0,14.0,67,0.00,,---,0.00,VWS V14.01,2013-01-22 02:36:00,
2013-01-21 21:41:00,4.2,-4.3,30.13,West,270,5.0,14.0,67,0.00,,---,0.00,VWS V14.01,2013-01-22 02:41:00,
2013-01-21 21:46:00,4.1,-4.4,30.14,WNW,299,5.0,14.0,67,0.00,,---,0.00,VWS V14.01,2013-01-22 02:46:00,
2013-01-21 21:52:00,4.0,-4.5,30.14,WNW,300,2.0,14.0,67,0.00,,---,0.00,VWS V14.01,2013-01-22 02:52:00,
2013-01-21 21:57:00,3.9,-4.6,30.14,NW,320,3.0,14.0,67,0.00,,---,0.00,VWS V14.01,2013-01-22 02:57:00,
2013-01-21 22:02:00,3.8,-4.7,30.14,WSW,252,1.0,5.0,67,0.00,,---,0.00,VWS V14.01,2013-01-22 03:02:00,
2013-01-21 22:07:00,3.8,-4.7,30.14,West,281,4.0,10.0,67,0.00,,---,0.00,VWS V14.01,2013-01-22 03:07:00,
2013-01-21 22:12:00,3.7,-4.8,30.14,WNW,298,4.0,10.0,67,0.00,,---,0.00,VWS V14.01,2013-01-22 03:12:00,
2013-01-21 22:17:00,3.6,-4.6,30.14,WNW,284,4.0,10.0,68,0.00,,---,0.00,VWS V14.01,2013-01-22 03:17:00,
2013-01-21 22:22:00,3.6,-4.6,30.14,West,271,6.0,11.0,68,0.00,,---,0.00,VWS V14.01,2013-01-22 03:22:00,
2013-01-21 22:27:00,3.6,-4.3,30.14,West,266,3.0,11.0,69,0.00,,---,0.00,VWS V14.01,2013-01-22 03:27:00,
2013-01-21 22:32:00,3.6,-4.3,30.15,NW,319,3.0,11.0,69,0.00,,---,0.00,VWS V14.01,2013-01-22 03:32:00,
2013-01-21 22:37:00,3.5,-4.4,30.15,NW,305,4.0,11.0,69,0.00,,---,0.00,VWS V14.01,2013-01-22 03:37:00,
2013-01-21 22:42:00,3.4,-4.5,30.15,WNW,286,2.0,11.0,69,0.00,,---,0.00,VWS V14.01,2013-01-22 03:42:00,
2013-01-21 22:48:00,3.4,-4.2,30.15,WNW,284,4.0,11.0,70,0.00,,---,0.00,VWS V14.01,2013-01-22 03:48:00,
2013-01-21 22:53:00,3.3,-4.3,30.15,West,281,2.0,11.0,70,0.00,,---,0.00,VWS V14.01,2013-01-22 03:53:00,
2013-01-21 22:58:00,3.3,-4.3,30.15,West,266,7.0,11.0,70,0.00,,---,0.00,VWS V14.01,2013-01-22 03:58:00,
2013-01-21 23:03:00,3.3,-4.3,30.16,WNW,287,8.0,11.0,70,0.00,,---,0.00,VWS V14.01,2013-01-22 04:03:00,
2013-01-21 23:08:00,3.2,-4.4,30.16,WNW,297,5.0,13.0,70,0.00,,---,0.00,VWS V14.01,2013-01-22 04:08:00,
2013-01-21 23:13:00,3.1,-4.5,30.16,WNW,297,3.0,13.0,70,0.00,,---,0.00,VWS V14.01,2013-01-22 04:13:00,
2013-01-21 23:18:00,3.0,-4.6,30.16,WNW,286,2.0,13.0,70,0.00,,---,0.00,VWS V14.01,2013-01-22 04:18:00,
2013-01-21 23:23:00,2.9,-4.7,30.16,West,271,3.0,13.0,70,0.00,,---,0.00,VWS V14.01,2013-01-22 04:23:00,
2013-01-21 23:28:00,2.8,-4.8,30.16,WNW,294,3.0,13.0,70,0.00,,---,0.00,VWS V14.01,2013-01-22 04:28:00,
2013-01-21 23:34:00,2.8,-4.8,30.16,WSW,256,5.0,13.0,70,0.00,,---,0.00,VWS V14.01,2013-01-22 04:34:00,
2013-01-21 23:39:00,2.7,-4.8,30.16,WNW,288,2.0,13.0,70,0.00,,---,0.00,VWS V14.01,2013-01-22 04:39:00,
2013-01-21 23:44:00,2.7,-4.8,30.16,NW,307,6.0,13.0,70,0.00,,---,0.00,VWS V14.01,2013-01-22 04:44:00,
2013-01-21 23:49:00,2.6,-4.9,30.16,NW,311,4.0,13.0,70,0.00,,---,0.00,VWS V14.01,2013-01-22 04:49:00,
2013-01-21 23:54:00,2.6,-4.9,30.17,West,274,5.0,13.0,70,0.00,,---,0.00,VWS V14.01,2013-01-22 04:54:00,
2013-01-21 23:59:00,2.5,-5.0,30.17,NW,307,1.0,13.0,70,0.00,,---,0.00,VWS V14.01,2013-01-22 04:59:00,